{"data":{"norad_id":44078,"intl_designator":"2019-018A","name":"EMISAT","alt_names":[],"object_type":"PAYLOAD","status":"ACTIVE","operator":null,"country":"IND","launch_date":"2019-04-01","launch_site_code":"SRILR","launch_vehicle":null,"mission":null,"orbit_class":"UNKNOWN","rcs_meters":null,"size_class":null,"mass_kg":null,"dimensions":null,"purposes":[],"wikipedia_slug":null,"has_3d_model":false,"image_url":null,"decayed_at":null,"tle_current":{"epoch":"2026-09-20T03:59:43.752768Z","epoch_age_seconds":87281,"freshness":"FRESH","line1":"1 44078U 19018A   26263.16647862  .00000051  00000+0  27900-4 0  9998","line2":"2 44078  98.4550 321.3957 0017229 293.6626  66.2756 14.43669745393760","mean_motion":14.43669745,"eccentricity":0.0017229,"inclination_deg":98.455,"raan_deg":321.3957,"arg_perigee_deg":293.6626,"mean_anomaly_deg":66.2756,"bstar":2.79e-5,"rev_number":39376,"period_min":99.745804397944,"perigee_km":734.12445356601,"apogee_km":758.67418080777,"semimajor_km":7124.5363171869,"source":"CELESTRAK","updated_at":"2026-09-20T09:00:14.452912Z"}}}